This is the latest recevied weather packets stored in our database for station/object 4S6DRJ-13. If no packets are shown the sender has not sent any weather packets the latest 10 day(s).
| Time | Temp. | Humidity | Pressure | Rain* | Wind** | Luminosity | Snow |
|---|---|---|---|---|---|---|---|
| 1777557745 | 30° C | 76% | 1007.6 hPa | 0 mm | 0.45 m/s, 185° | 0 W/m² | - |
| 1777557684 | 30° C | 76% | 1007.5 hPa | 0 mm | 0.89 m/s, 173° | 0 W/m² | - |
| 1777557623 | 30.56° C | 76% | 1007.4 hPa | 0 mm | 1.34 m/s, 174° | 0 W/m² | - |
| 1777557562 | 30.56° C | 76% | 1007.7 hPa | 0 mm | 1.34 m/s, 184° | 0 W/m² | - |
| 1777557501 | 30.56° C | 76% | 1007.5 hPa | 0 mm | 2.24 m/s, 172° | 0 W/m² | - |
| 1777557439 | 30.56° C | 76% | 1007.4 hPa | 0 mm | 1.79 m/s, 184° | 0 W/m² | - |
| 1777557379 | 30.56° C | 76% | 1007.6 hPa | 0 mm | 1.34 m/s, 159° | 0 W/m² | - |
| 1777557318 | 30.56° C | 76% | 1007.7 hPa | 0 mm | 0.89 m/s, 165° | 0 W/m² | - |
| 1777557257 | 30.56° C | 76% | 1007.6 hPa | 0 mm | 0.89 m/s, 144° | 0 W/m² | - |
| 1777557196 | 30.56° C | 76% | 1007.7 hPa | 0 mm | 0.89 m/s, 189° | 0 W/m² | - |
| 1777557135 | 30.56° C | 76% | 1007.7 hPa | 0 mm | 1.79 m/s, 171° | 0 W/m² | - |
| 1777557074 | 30.56° C | 75% | 1007.5 hPa | 0 mm | 1.79 m/s, 162° | 0 W/m² | - |
| 1777557013 | 30.56° C | 75% | 1007.6 hPa | 0 mm | 1.79 m/s, 185° | 0 W/m² | - |
| 1777556952 | 30.56° C | 75% | 1007.7 hPa | 0 mm | 1.34 m/s, 189° | 0 W/m² | - |
| 1777556891 | 30.56° C | 75% | 1007.5 hPa | 0 mm | 1.34 m/s, 205° | 0 W/m² | - |
| 1777556829 | 30.56° C | 76% | 1007.5 hPa | 0 mm | 1.79 m/s, 201° | 0 W/m² | - |
| 1777556769 | 30.56° C | 76% | 1007.4 hPa | 0 mm | 0.89 m/s, 177° | 0 W/m² | - |
| 1777556708 | 30.56° C | 76% | 1007.4 hPa | 0 mm | 0.45 m/s, 162° | 0 W/m² | - |
| 1777556647 | 30.56° C | 76% | 1007.5 hPa | 0 mm | 0.45 m/s, 175° | 0 W/m² | - |
| 1777556586 | 30.56° C | 76% | 1007.6 hPa | 0 mm | 0.89 m/s, 214° | 0 W/m² | - |
| 1777556525 | 30.56° C | 76% | 1007.3 hPa | 0 mm | 0.89 m/s, 247° | 0 W/m² | - |
| 1777556464 | 30.56° C | 76% | 1007.2 hPa | 0 mm | 0.45 m/s, 150° | 0 W/m² | - |
| 1777556403 | 30.56° C | 76% | 1007.4 hPa | 0 mm | 1.79 m/s, 148° | 0 W/m² | - |
| 1777556341 | 30.56° C | 76% | 1007.3 hPa | 0 mm | 2.24 m/s, 205° | 0 W/m² | - |
| 1777556280 | 30.56° C | 76% | 1007.2 hPa | 0 mm | 2.24 m/s, 189° | 0 W/m² | - |
* Rain latest hour (hover to see other rain measurements)
** Current wind speed in m/s (hover to see current wind gust speed)